{"data":{"norad_id":63474,"epoch":"2026-09-20T23:18:23.239584Z","epoch_age_seconds":115678,"freshness":"FRESH","line1":"1 63474U 25070Q   26263.97110231  .00013694  00000+0  50612-3 0  9990","line2":"2 63474  43.0013 236.8224 0001316 266.6923  93.3778 15.27586292 82845","mean_motion":15.27586292,"eccentricity":0.0001316,"inclination_deg":43.0013,"raan_deg":236.8224,"arg_perigee_deg":266.6923,"mean_anomaly_deg":93.3778,"bstar":0.00050612,"rev_number":8284,"period_min":94.266360436809,"perigee_km":482.12732598195,"apogee_km":483.93318520362,"semimajor_km":6861.1672555928,"source":"CELESTRAK","updated_at":"2026-09-21T09:00:35.010062Z"}}